Location: Gleizolles
(44.4833°N, 6.7667°E)
Time: 00:10:57
(UTC+00:00)

Vanguard 2 Rocket - Pass Details

Date: 18 June 2024
Orbit: 555 x 3302 km, 32.9° (Epoch: 24 July)

Event Time Altitude Azimuth Distance (km) Brightness Sun altitude
Rises 02:19:43 0° 223° (SW) 7,112 - -12.3°
Reaches altitude 10° 02:24:51 10° 216° (SW) 6,213 - -11.7°
Exits shadow 02:26:08 13° 214° (SW) 5,995 10.4 -11.6°
Maximum altitude 02:42:29 40° 156° (SSE) 4,011 10.0 -9.6°
Drops below altitude 10° 02:56:39 10° 95° (E) 5,070 11.3 -7.9°
Sets 03:00:17 0° 88° (E) 5,746 11.8 -7.4°
